This is the latest recevied weather packets stored in our database for station/object IT9KWW-13. If no packets are shown the sender has not sent any weather packets the latest 1 day(s).
| Time | Temp. | Humidity | Pressure | Rain* | Wind** | Luminosity | Snow |
|---|---|---|---|---|---|---|---|
| 1778037297 | 12.78° C | 94% | 1011.8 hPa | 0 mm | 2.24 m/s, 292° | - | - |
| 1778037178 | 12.78° C | 94% | 1011.8 hPa | 0 mm | 1.34 m/s, 270° | - | - |
| 1778037057 | 12.78° C | 94% | 1011.8 hPa | 0 mm | 2.24 m/s, 270° | - | - |
| 1778036937 | 12.78° C | 94% | 1011.8 hPa | 0 mm | 2.24 m/s, 248° | - | - |
| 1778036818 | 12.78° C | 94% | 1011.8 hPa | 0 mm | 2.24 m/s, 248° | - | - |
| 1778036697 | 12.78° C | 93% | - | 0 mm | 2.24 m/s, 248° | - | - |
| 1778036397 | 12.78° C | 93% | 1011.8 hPa | 0 mm | 0.89 m/s, 292° | - | - |
| 1778036277 | 12.78° C | 93% | 1011.8 hPa | 0 mm | 1.34 m/s, 292° | - | - |
| 1778036146 | 12.78° C | 93% | 1011.8 hPa | 0 mm | 0.89 m/s, 248° | - | - |
| 1778036025 | 12.78° C | 93% | 1011.8 hPa | 0 mm | 0.45 m/s, 248° | - | - |
| 1778035905 | 12.78° C | 93% | 1011.8 hPa | 0 mm | 0.89 m/s, 248° | - | - |
| 1778035786 | 12.78° C | 93% | 1011.8 hPa | 0 mm | 0.89 m/s, 45° | - | - |
| 1778035665 | 12.78° C | 93% | 1011.8 hPa | 0 mm | 0 m/s | - | - |
| 1778035545 | 12.78° C | 93% | 1011.8 hPa | 0 mm | 0.45 m/s, 45° | - | - |
| 1778035426 | 12.78° C | 93% | 1011.8 hPa | 0 mm | 0.45 m/s, 45° | - | - |
| 1778035305 | 12.78° C | 93% | 1011.8 hPa | 0 mm | 1.34 m/s, 45° | - | - |
| 1778035185 | 13.33° C | 93% | 1011.8 hPa | 0 mm | 0 m/s | - | - |
| 1778035066 | 13.33° C | 92% | 1011.8 hPa | 0 mm | 0 m/s | - | - |
| 1778034945 | 13.33° C | 93% | 1011.8 hPa | 0 mm | 0 m/s | - | - |
| 1778034825 | 13.33° C | 93% | 1011.8 hPa | 0 mm | 0 m/s | - | - |
| 1778034706 | 13.33° C | 93% | 1011.8 hPa | 0 mm | 0 m/s | - | - |
| 1778034585 | 13.33° C | 93% | 1011.8 hPa | 0 mm | 0.45 m/s, 270° | - | - |
| 1778034465 | 13.33° C | 93% | 1011.8 hPa | 0 mm | 0 m/s | - | - |
| 1778034346 | 13.33° C | 93% | 1011.8 hPa | 0 mm | 0 m/s | - | - |
| 1778034225 | 13.33° C | 93% | 1011.8 hPa | 0 mm | 0 m/s | - | - |
* Rain latest hour (hover to see other rain measurements)
** Current wind speed in m/s (hover to see current wind gust speed)